Year,Month,Day,Hour,Minute,Value (Times are PST for windspeed in km/hr)
2009,05,27,00,00,2.60
2009,05,27,00,01,3.90
2009,05,27,00,02,4.70
2009,05,27,00,03,4.70
2009,05,27,00,04,1.30
2009,05,27,00,05,2.80
2009,05,27,00,06,2.10
2009,05,27,00,07,5.10
2009,05,27,00,08,3.90
2009,05,27,00,09,1.40
2009,05,27,00,10,3.10
2009,05,27,00,11,5.40
2009,05,27,00,12,5.60
2009,05,27,00,13,4.30
2009,05,27,00,14,3.00
2009,05,27,00,15,0.90
2009,05,27,00,16,0.90
2009,05,27,00,17,3.70
2009,05,27,00,18,3.60
2009,05,27,00,19,3.90
2009,05,27,00,20,2.70
2009,05,27,00,21,3.10
2009,05,27,00,22,2.20
2009,05,27,00,23,2.60
2009,05,27,00,24,2.10
2009,05,27,00,25,0.90
2009,05,27,00,26,3.70
2009,05,27,00,27,0.40
2009,05,27,00,28,0.00
2009,05,27,00,29,0.20
2009,05,27,00,30,1.30
2009,05,27,00,31,4.10
2009,05,27,00,32,3.20
2009,05,27,00,33,0.50
2009,05,27,00,34,0.00
2009,05,27,00,35,2.20
2009,05,27,00,36,0.90
2009,05,27,00,37,3.00
2009,05,27,00,38,4.30
2009,05,27,00,39,1.80
2009,05,27,00,40,2.30
2009,05,27,00,41,1.10
2009,05,27,00,42,2.70
2009,05,27,00,43,2.10
2009,05,27,00,44,0.00
2009,05,27,00,45,1.70
2009,05,27,00,46,2.10
2009,05,27,00,47,3.50
2009,05,27,00,48,4.70
2009,05,27,00,49,4.30
2009,05,27,00,50,5.70
2009,05,27,00,51,3.40
2009,05,27,00,52,5.90
2009,05,27,00,53,4.20
2009,05,27,00,54,3.60
2009,05,27,00,55,4.70
2009,05,27,00,56,1.80
2009,05,27,00,57,3.20
2009,05,27,00,58,4.80
2009,05,27,00,59,4.70
2009,05,27,01,00,6.10
2009,05,27,01,01,4.20
2009,05,27,01,02,1.40
2009,05,27,01,03,4.10
2009,05,27,01,04,3.00
2009,05,27,01,05,3.80
2009,05,27,01,06,2.20
2009,05,27,01,07,0.00
2009,05,27,01,08,0.00
2009,05,27,01,09,1.50
2009,05,27,01,10,2.60
2009,05,27,01,11,1.60
2009,05,27,01,12,2.70
2009,05,27,01,13,2.60
2009,05,27,01,14,3.40
2009,05,27,01,15,2.20
2009,05,27,01,16,4.60
2009,05,27,01,17,6.10
2009,05,27,01,18,5.80
2009,05,27,01,19,1.30
2009,05,27,01,20,4.50
2009,05,27,01,21,2.30
2009,05,27,01,22,1.00
2009,05,27,01,23,1.90
2009,05,27,01,24,1.50
2009,05,27,01,25,2.50
2009,05,27,01,26,1.30
2009,05,27,01,27,1.90
2009,05,27,01,28,1.40
2009,05,27,01,29,1.00
2009,05,27,01,30,1.10
2009,05,27,01,31,5.60
2009,05,27,01,32,9.10
2009,05,27,01,33,3.90
2009,05,27,01,34,5.90
2009,05,27,01,35,7.70
2009,05,27,01,36,3.00
2009,05,27,01,37,4.70
2009,05,27,01,38,6.00
2009,05,27,01,39,5.10
2009,05,27,01,40,2.60
2009,05,27,01,41,4.30
2009,05,27,01,42,5.60
2009,05,27,01,43,1.50
2009,05,27,01,44,1.00
2009,05,27,01,45,2.10
2009,05,27,01,46,1.40
2009,05,27,01,47,2.50
2009,05,27,01,48,2.10
2009,05,27,01,49,3.90
2009,05,27,01,50,4.70
2009,05,27,01,51,2.60
2009,05,27,01,52,3.80
2009,05,27,01,53,3.60
2009,05,27,01,54,2.70
2009,05,27,01,55,3.00
2009,05,27,01,56,4.10
2009,05,27,01,57,5.40
2009,05,27,01,58,3.30
2009,05,27,01,59,3.90
2009,05,27,02,00,4.20
2009,05,27,02,01,4.70
2009,05,27,02,02,3.10
2009,05,27,02,03,2.00
2009,05,27,02,04,5.50
2009,05,27,02,05,3.50
2009,05,27,02,06,3.50
2009,05,27,02,07,5.20
2009,05,27,02,08,6.40
2009,05,27,02,09,5.50
2009,05,27,02,10,3.20
2009,05,27,02,11,5.60
2009,05,27,02,12,4.50
2009,05,27,02,13,5.10
2009,05,27,02,14,6.60
2009,05,27,02,15,2.40
2009,05,27,02,16,4.90
2009,05,27,02,17,6.40
2009,05,27,02,18,6.10
2009,05,27,02,19,5.70
2009,05,27,02,20,7.80
2009,05,27,02,21,6.00
2009,05,27,02,22,4.10
2009,05,27,02,23,5.40
2009,05,27,02,24,6.10
2009,05,27,02,25,7.70
2009,05,27,02,26,7.00
2009,05,27,02,27,6.40
2009,05,27,02,28,5.50
2009,05,27,02,29,4.80
2009,05,27,02,30,9.90
2009,05,27,02,31,7.30
2009,05,27,02,32,6.30
2009,05,27,02,33,5.10
2009,05,27,02,34,6.30
2009,05,27,02,35,5.10
2009,05,27,02,36,5.60
2009,05,27,02,37,5.10
2009,05,27,02,38,3.70
2009,05,27,02,39,4.90
2009,05,27,02,40,5.70
2009,05,27,02,41,5.30
2009,05,27,02,42,4.70
2009,05,27,02,43,2.80
2009,05,27,02,44,3.00
2009,05,27,02,45,5.90
2009,05,27,02,46,6.80
2009,05,27,02,47,4.10
2009,05,27,02,48,3.90
2009,05,27,02,49,2.90
2009,05,27,02,50,5.50
2009,05,27,02,51,5.30
2009,05,27,02,52,3.10
2009,05,27,02,53,4.80
2009,05,27,02,54,4.20
2009,05,27,02,55,3.00
2009,05,27,02,56,2.70
2009,05,27,02,57,2.90
2009,05,27,02,58,3.10
2009,05,27,02,59,3.90
2009,05,27,03,00,3.30
2009,05,27,03,01,4.80
2009,05,27,03,02,3.70
2009,05,27,03,03,4.70
2009,05,27,03,04,4.30
2009,05,27,03,05,0.80
2009,05,27,03,06,4.10
2009,05,27,03,07,1.30
2009,05,27,03,08,5.10
2009,05,27,03,09,1.40
2009,05,27,03,10,1.20
2009,05,27,03,11,3.50
2009,05,27,03,12,4.80
2009,05,27,03,13,6.70
2009,05,27,03,14,5.90
2009,05,27,03,15,3.70
2009,05,27,03,16,4.80
2009,05,27,03,17,4.70
2009,05,27,03,18,3.90
2009,05,27,03,19,3.00
2009,05,27,03,20,2.40
2009,05,27,03,21,3.90
2009,05,27,03,22,2.10
2009,05,27,03,23,6.00
2009,05,27,03,24,4.30
2009,05,27,03,25,2.70
2009,05,27,03,26,1.20
2009,05,27,03,27,4.20
2009,05,27,03,28,2.70
2009,05,27,03,29,1.10
2009,05,27,03,30,2.30
2009,05,27,03,31,1.90
2009,05,27,03,32,3.70
2009,05,27,03,33,2.60
2009,05,27,03,34,4.10
2009,05,27,03,35,1.40
2009,05,27,03,36,3.60
2009,05,27,03,37,3.50
2009,05,27,03,38,3.90
2009,05,27,03,39,2.10
2009,05,27,03,40,3.50
2009,05,27,03,41,3.90
2009,05,27,03,42,3.30
2009,05,27,03,43,2.10
2009,05,27,03,44,3.10
2009,05,27,03,45,1.80
2009,05,27,03,46,2.40
2009,05,27,03,47,0.40
2009,05,27,03,48,0.30
2009,05,27,03,49,1.30
2009,05,27,03,50,0.10
2009,05,27,03,51,0.10
2009,05,27,03,52,0.00
2009,05,27,03,53,0.00
2009,05,27,03,54,0.10
2009,05,27,03,55,0.60
2009,05,27,03,56,0.20
2009,05,27,03,57,0.10
2009,05,27,03,58,2.40
2009,05,27,03,59,3.90
2009,05,27,04,00,1.60
2009,05,27,04,01,3.30
2009,05,27,04,02,2.50
2009,05,27,04,03,2.00
2009,05,27,04,04,4.00
2009,05,27,04,05,4.50
2009,05,27,04,06,4.30
2009,05,27,04,07,2.20
2009,05,27,04,08,4.20
2009,05,27,04,09,2.30
2009,05,27,04,10,1.90
2009,05,27,04,11,4.60
2009,05,27,04,12,8.00
2009,05,27,04,13,6.70
2009,05,27,04,14,5.10
2009,05,27,04,15,4.60
2009,05,27,04,16,3.90
2009,05,27,04,17,3.70
2009,05,27,04,18,4.70
2009,05,27,04,19,3.60
2009,05,27,04,20,4.00
2009,05,27,04,21,5.60
2009,05,27,04,22,4.60
2009,05,27,04,23,5.30
2009,05,27,04,24,6.30
2009,05,27,04,25,5.10
2009,05,27,04,26,4.40
2009,05,27,04,27,3.10
2009,05,27,04,28,3.10
2009,05,27,04,29,4.00
2009,05,27,04,30,1.80
2009,05,27,04,31,0.50
2009,05,27,04,32,3.30
2009,05,27,04,33,1.20
2009,05,27,04,34,0.20
2009,05,27,04,35,2.60
2009,05,27,04,36,4.30
2009,05,27,04,37,1.40
2009,05,27,04,38,2.50
2009,05,27,04,39,1.30
2009,05,27,04,40,3.10
2009,05,27,04,41,1.80
2009,05,27,04,42,0.60
2009,05,27,04,43,0.10
2009,05,27,04,44,1.00
2009,05,27,04,45,0.30
2009,05,27,04,46,1.90
2009,05,27,04,47,2.20
2009,05,27,04,48,0.70
2009,05,27,04,49,0.60
2009,05,27,04,50,0.10
2009,05,27,04,51,2.20
2009,05,27,04,52,1.10
2009,05,27,04,53,2.70
2009,05,27,04,54,1.00
2009,05,27,04,55,2.50
2009,05,27,04,56,2.30
2009,05,27,04,57,3.00
2009,05,27,04,58,2.10
2009,05,27,04,59,1.80
2009,05,27,05,00,0.60
2009,05,27,05,01,0.20
2009,05,27,05,02,1.00
2009,05,27,05,03,0.60
2009,05,27,05,04,0.10
2009,05,27,05,05,0.20
2009,05,27,05,06,0.10
2009,05,27,05,07,0.30
2009,05,27,05,08,1.20
2009,05,27,05,09,0.20
2009,05,27,05,10,0.10
2009,05,27,05,11,0.10
2009,05,27,05,12,0.00
2009,05,27,05,13,0.00
2009,05,27,05,14,0.00
2009,05,27,05,15,0.30
2009,05,27,05,16,0.50
2009,05,27,05,17,0.20
2009,05,27,05,18,0.20
2009,05,27,05,19,0.00
2009,05,27,05,20,0.10
2009,05,27,05,21,1.40
2009,05,27,05,22,3.80
2009,05,27,05,23,3.40
2009,05,27,05,24,2.40
2009,05,27,05,25,2.60
2009,05,27,05,26,1.10
2009,05,27,05,27,0.00
2009,05,27,05,28,3.90
2009,05,27,05,29,4.30
2009,05,27,05,30,3.40
2009,05,27,05,31,3.80
2009,05,27,05,32,1.50
2009,05,27,05,33,0.50
2009,05,27,05,34,1.90
2009,05,27,05,35,0.30
2009,05,27,05,36,0.00
2009,05,27,05,37,0.00
2009,05,27,05,38,0.00
2009,05,27,05,39,0.00
2009,05,27,05,40,0.00
2009,05,27,05,41,0.00
2009,05,27,05,42,0.00
2009,05,27,05,43,0.00
2009,05,27,05,44,0.00
2009,05,27,05,45,0.00
2009,05,27,05,46,0.00
2009,05,27,05,47,0.00
2009,05,27,05,48,0.00
2009,05,27,05,49,0.00
2009,05,27,05,50,0.00
2009,05,27,05,51,0.00
2009,05,27,05,52,0.00
2009,05,27,05,53,0.00
2009,05,27,05,54,0.00
2009,05,27,05,55,0.00
2009,05,27,05,56,0.00
2009,05,27,05,57,0.00
2009,05,27,05,58,0.00
2009,05,27,05,59,0.00
2009,05,27,06,00,0.00
2009,05,27,06,01,0.00
2009,05,27,06,02,0.10
2009,05,27,06,03,0.00
2009,05,27,06,04,0.00
2009,05,27,06,05,0.00
2009,05,27,06,06,0.00
2009,05,27,06,07,0.00
2009,05,27,06,08,0.00
2009,05,27,06,09,0.00
2009,05,27,06,10,0.00
2009,05,27,06,11,0.00
2009,05,27,06,12,0.00
2009,05,27,06,13,0.00
2009,05,27,06,14,0.00
2009,05,27,06,15,0.00
2009,05,27,06,16,0.00
2009,05,27,06,17,0.00
2009,05,27,06,18,0.00
2009,05,27,06,19,0.00
2009,05,27,06,20,0.00
2009,05,27,06,21,0.10
2009,05,27,06,22,0.00
2009,05,27,06,23,0.00
2009,05,27,06,24,0.00
2009,05,27,06,25,0.50
2009,05,27,06,26,0.60
2009,05,27,06,27,0.70
2009,05,27,06,28,0.10
2009,05,27,06,29,0.00
2009,05,27,06,30,0.00
2009,05,27,06,31,0.00
2009,05,27,06,32,0.70
2009,05,27,06,33,0.00
2009,05,27,06,34,0.00
2009,05,27,06,35,0.00
2009,05,27,06,36,0.90
2009,05,27,06,37,1.00
2009,05,27,06,38,1.30
2009,05,27,06,39,0.50
2009,05,27,06,40,0.80
2009,05,27,06,41,0.20
2009,05,27,06,42,0.00
2009,05,27,06,43,0.20
2009,05,27,06,44,0.90
2009,05,27,06,45,2.50
2009,05,27,06,46,1.00
2009,05,27,06,47,1.20
2009,05,27,06,48,0.60
2009,05,27,06,49,1.50
2009,05,27,06,50,1.70
2009,05,27,06,51,4.20
2009,05,27,06,52,3.10
2009,05,27,06,53,7.20
2009,05,27,06,54,3.60
2009,05,27,06,55,0.40
2009,05,27,06,56,1.50
2009,05,27,06,57,4.30
2009,05,27,06,58,6.20
2009,05,27,06,59,6.60
2009,05,27,07,00,3.20
2009,05,27,07,01,4.00
2009,05,27,07,02,2.30
2009,05,27,07,03,2.80
2009,05,27,07,04,4.80
2009,05,27,07,05,4.40
2009,05,27,07,06,3.10
2009,05,27,07,07,2.80
2009,05,27,07,08,4.40
2009,05,27,07,09,5.00
2009,05,27,07,10,3.00
2009,05,27,07,11,4.50
2009,05,27,07,12,5.10
2009,05,27,07,13,3.20
2009,05,27,07,14,2.10
2009,05,27,07,15,3.50
2009,05,27,07,16,5.80
2009,05,27,07,17,4.00
2009,05,27,07,18,3.30
2009,05,27,07,19,7.40
2009,05,27,07,20,5.80
2009,05,27,07,21,2.80
2009,05,27,07,22,5.80
2009,05,27,07,23,2.40
2009,05,27,07,24,6.60
2009,05,27,07,25,6.40
2009,05,27,07,26,7.30
2009,05,27,07,27,6.90
2009,05,27,07,28,3.90
2009,05,27,07,29,3.30
2009,05,27,07,30,1.80
2009,05,27,07,31,7.70
2009,05,27,07,32,5.20
2009,05,27,07,33,6.60
2009,05,27,07,34,4.30
2009,05,27,07,35,8.30
2009,05,27,07,36,6.90
2009,05,27,07,37,8.10
2009,05,27,07,38,5.20
2009,05,27,07,39,2.60
2009,05,27,07,40,6.40
2009,05,27,07,41,4.50
2009,05,27,07,42,3.10
2009,05,27,07,43,2.70
2009,05,27,07,44,4.70
2009,05,27,07,45,3.20
2009,05,27,07,46,4.30
2009,05,27,07,47,3.10
2009,05,27,07,48,4.30
2009,05,27,07,49,4.60
2009,05,27,07,50,3.10
2009,05,27,07,51,4.70
2009,05,27,07,52,4.80
2009,05,27,07,53,5.50
2009,05,27,07,54,2.80
2009,05,27,07,55,2.50
2009,05,27,07,56,3.90
2009,05,27,07,57,4.70
2009,05,27,07,58,7.00
2009,05,27,07,59,4.50
2009,05,27,08,00,1.90
2009,05,27,08,01,5.30
2009,05,27,08,02,4.00
2009,05,27,08,03,6.20
2009,05,27,08,04,4.70
2009,05,27,08,05,7.50
2009,05,27,08,06,7.60
2009,05,27,08,07,3.40
2009,05,27,08,08,3.10
2009,05,27,08,09,5.30
2009,05,27,08,10,5.70
2009,05,27,08,11,6.00
2009,05,27,08,12,3.90
2009,05,27,08,13,6.80
2009,05,27,08,14,5.00
2009,05,27,08,15,2.50
2009,05,27,08,16,2.00
2009,05,27,08,17,3.30
2009,05,27,08,18,4.80
2009,05,27,08,19,4.80
2009,05,27,08,20,5.70
2009,05,27,08,21,6.50
2009,05,27,08,22,5.50
2009,05,27,08,23,5.30
2009,05,27,08,24,3.80
2009,05,27,08,25,1.90
2009,05,27,08,26,5.40
2009,05,27,08,27,1.80
2009,05,27,08,28,1.10
2009,05,27,08,29,5.00
2009,05,27,08,30,1.70
2009,05,27,08,31,2.40
2009,05,27,08,32,3.40
2009,05,27,08,33,2.50
2009,05,27,08,34,5.80
2009,05,27,08,35,6.80
2009,05,27,08,36,7.60
2009,05,27,08,37,6.40
2009,05,27,08,38,5.20
2009,05,27,08,39,5.00
2009,05,27,08,40,6.80
2009,05,27,08,41,4.90
2009,05,27,08,42,5.70
2009,05,27,08,43,6.90
2009,05,27,08,44,3.10
2009,05,27,08,45,1.80
2009,05,27,08,46,6.90
2009,05,27,08,47,6.00
2009,05,27,08,48,5.20
2009,05,27,08,49,5.60
2009,05,27,08,50,5.50
2009,05,27,08,51,5.20
2009,05,27,08,52,1.70
2009,05,27,08,53,3.50
2009,05,27,08,54,4.40
2009,05,27,08,55,2.50
2009,05,27,08,56,2.80
2009,05,27,08,57,5.20
2009,05,27,08,58,4.10
2009,05,27,08,59,2.00
2009,05,27,09,00,6.00
2009,05,27,09,01,7.20
2009,05,27,09,02,6.40
2009,05,27,09,03,7.10
2009,05,27,09,04,8.00
2009,05,27,09,05,5.00
2009,05,27,09,06,6.20
2009,05,27,09,07,7.20
2009,05,27,09,08,8.00
2009,05,27,09,09,4.90
2009,05,27,09,10,2.80
2009,05,27,09,11,8.00
2009,05,27,09,12,6.30
2009,05,27,09,13,4.80
2009,05,27,09,14,2.80
2009,05,27,09,15,5.70
2009,05,27,09,16,4.20
2009,05,27,09,17,5.10
2009,05,27,09,18,4.30
2009,05,27,09,19,6.40
2009,05,27,09,20,4.80
2009,05,27,09,21,4.50
2009,05,27,09,22,6.60
2009,05,27,09,23,7.00
2009,05,27,09,24,7.40
2009,05,27,09,25,6.40
2009,05,27,09,26,4.00
2009,05,27,09,27,1.40
2009,05,27,09,28,5.60
2009,05,27,09,29,5.40
2009,05,27,09,30,2.40
2009,05,27,09,31,4.30
2009,05,27,09,32,5.70
2009,05,27,09,33,5.00
2009,05,27,09,34,4.90
2009,05,27,09,35,7.00
2009,05,27,09,36,9.20
2009,05,27,09,37,6.90
2009,05,27,09,38,5.60
2009,05,27,09,39,5.40
2009,05,27,09,40,6.60
2009,05,27,09,41,9.50
2009,05,27,09,42,8.10
2009,05,27,09,43,5.50
2009,05,27,09,44,7.80
2009,05,27,09,45,7.20
2009,05,27,09,46,3.60
2009,05,27,09,47,4.30
2009,05,27,09,48,2.00
2009,05,27,09,49,3.80
2009,05,27,09,50,3.50
2009,05,27,09,51,7.10
2009,05,27,09,52,2.60
2009,05,27,09,53,2.80
2009,05,27,09,54,4.60
2009,05,27,09,55,6.70
2009,05,27,09,56,4.10
2009,05,27,09,57,3.40
2009,05,27,09,58,5.40
2009,05,27,09,59,5.10
2009,05,27,10,00,3.20
2009,05,27,10,01,4.50
2009,05,27,10,02,3.80
2009,05,27,10,03,2.40
2009,05,27,10,04,2.30
2009,05,27,10,05,5.20
2009,05,27,10,06,6.40
2009,05,27,10,07,6.00
2009,05,27,10,08,5.40
2009,05,27,10,09,6.10
2009,05,27,10,10,4.20
2009,05,27,10,11,5.00
2009,05,27,10,12,3.50
2009,05,27,10,13,2.20
2009,05,27,10,14,4.00
2009,05,27,10,15,4.50
2009,05,27,10,16,4.80
2009,05,27,10,17,0.70
2009,05,27,10,18,4.40
2009,05,27,10,19,5.00
2009,05,27,10,20,2.40
2009,05,27,10,21,3.90
2009,05,27,10,22,3.60
2009,05,27,10,23,5.30
2009,05,27,10,24,5.80
2009,05,27,10,25,5.70
2009,05,27,10,26,4.60
2009,05,27,10,27,1.90
2009,05,27,10,28,2.80
2009,05,27,10,29,5.60
2009,05,27,10,30,3.50
2009,05,27,10,31,4.50
2009,05,27,10,32,5.50
2009,05,27,10,33,3.00
2009,05,27,10,34,5.10
2009,05,27,10,35,4.70
2009,05,27,10,36,5.90
2009,05,27,10,37,4.40
2009,05,27,10,38,5.60
2009,05,27,10,39,7.10
2009,05,27,10,40,3.50
2009,05,27,10,41,5.20
2009,05,27,10,42,3.10
2009,05,27,10,43,5.80
2009,05,27,10,44,6.10
2009,05,27,10,45,4.30
2009,05,27,10,46,5.30
2009,05,27,10,47,5.20
2009,05,27,10,48,5.10
2009,05,27,10,49,4.40
2009,05,27,10,50,2.10
2009,05,27,10,51,2.60
2009,05,27,10,52,4.10
2009,05,27,10,53,5.50
2009,05,27,10,54,4.20
2009,05,27,10,55,4.80
2009,05,27,10,56,5.10
2009,05,27,10,57,4.90
2009,05,27,10,58,6.40
2009,05,27,10,59,5.10
2009,05,27,11,00,2.60
2009,05,27,11,01,4.30
2009,05,27,11,02,5.80
2009,05,27,11,03,5.30
2009,05,27,11,04,5.90
2009,05,27,11,05,2.30
2009,05,27,11,06,3.80
2009,05,27,11,07,7.10
2009,05,27,11,08,4.90
2009,05,27,11,09,3.50
2009,05,27,11,10,5.30
2009,05,27,11,11,4.80
2009,05,27,11,12,8.60
2009,05,27,11,13,3.30
2009,05,27,11,14,3.10
2009,05,27,11,15,5.60
2009,05,27,11,16,7.30
2009,05,27,11,17,6.30
2009,05,27,11,18,6.00
2009,05,27,11,19,5.60
2009,05,27,11,20,7.40
2009,05,27,11,21,5.10
2009,05,27,11,22,5.60
2009,05,27,11,23,8.00
2009,05,27,11,24,6.70
2009,05,27,11,25,5.10
2009,05,27,11,26,5.50
2009,05,27,11,27,3.90
2009,05,27,11,28,6.60
2009,05,27,11,29,3.90
2009,05,27,11,30,6.40
2009,05,27,11,31,3.00
2009,05,27,11,32,2.50
2009,05,27,11,33,6.80
2009,05,27,11,34,6.20
2009,05,27,11,35,6.40
2009,05,27,11,36,6.40
2009,05,27,11,37,4.80
2009,05,27,11,38,5.80
2009,05,27,11,39,4.70
2009,05,27,11,40,6.80
2009,05,27,11,41,3.20
2009,05,27,11,42,4.90
2009,05,27,11,43,5.10
2009,05,27,11,44,7.50
2009,05,27,11,45,4.40
2009,05,27,11,46,5.30
2009,05,27,11,47,3.60
2009,05,27,11,48,6.10
2009,05,27,11,49,5.10
2009,05,27,11,50,6.40
2009,05,27,11,51,5.20
2009,05,27,11,52,3.60
2009,05,27,11,53,4.80
2009,05,27,11,54,6.60
2009,05,27,11,55,5.10
2009,05,27,11,56,4.40
2009,05,27,11,57,2.90
2009,05,27,11,58,5.80
2009,05,27,11,59,4.50
2009,05,27,12,00,6.40
2009,05,27,12,01,6.40
2009,05,27,12,02,5.60
2009,05,27,12,03,4.50
2009,05,27,12,04,3.20
2009,05,27,12,05,3.70
2009,05,27,12,06,4.80
2009,05,27,12,07,4.80
2009,05,27,12,08,4.80
2009,05,27,12,09,4.30
2009,05,27,12,10,6.40
2009,05,27,12,11,6.10
2009,05,27,12,12,5.10
2009,05,27,12,13,4.30
2009,05,27,12,14,5.20
2009,05,27,12,15,4.00
2009,05,27,12,16,3.00
2009,05,27,12,17,6.50
2009,05,27,12,18,3.50
2009,05,27,12,19,8.60
2009,05,27,12,20,8.00
2009,05,27,12,21,5.70
2009,05,27,12,22,6.40
2009,05,27,12,23,6.70
2009,05,27,12,24,9.40
2009,05,27,12,25,6.20
2009,05,27,12,26,6.00
2009,05,27,12,27,2.70
2009,05,27,12,28,3.30
2009,05,27,12,29,7.70
2009,05,27,12,30,4.80
2009,05,27,12,31,4.70
2009,05,27,12,32,4.70
2009,05,27,12,33,4.30
2009,05,27,12,34,4.40
2009,05,27,12,35,5.20
2009,05,27,12,36,4.60
2009,05,27,12,37,2.30
2009,05,27,12,38,7.70
2009,05,27,12,39,2.10
2009,05,27,12,40,4.30
2009,05,27,12,41,7.50
2009,05,27,12,42,5.60
2009,05,27,12,43,2.10
2009,05,27,12,44,3.60
2009,05,27,12,45,1.80
2009,05,27,12,46,2.40
2009,05,27,12,47,1.40
2009,05,27,12,48,2.40
2009,05,27,12,49,3.40
2009,05,27,12,50,2.10
2009,05,27,12,51,2.60
2009,05,27,12,52,1.70
2009,05,27,12,53,3.40
2009,05,27,12,54,6.70
2009,05,27,12,55,3.00
2009,05,27,12,56,3.60
2009,05,27,12,57,7.90
2009,05,27,12,58,7.20
2009,05,27,12,59,5.20
2009,05,27,13,00,0.80
2009,05,27,13,01,1.10
2009,05,27,13,02,3.90
2009,05,27,13,03,4.80
2009,05,27,13,04,7.80
2009,05,27,13,05,6.00
2009,05,27,13,06,1.50
2009,05,27,13,07,2.60
2009,05,27,13,08,6.50
2009,05,27,13,09,7.90
2009,05,27,13,10,3.70
2009,05,27,13,11,3.30
2009,05,27,13,12,7.70
2009,05,27,13,13,7.10
2009,05,27,13,14,5.60
2009,05,27,13,15,5.20
2009,05,27,13,16,6.80
2009,05,27,13,17,6.40
2009,05,27,13,18,0.80
2009,05,27,13,19,4.10
2009,05,27,13,20,6.00
2009,05,27,13,21,4.10
2009,05,27,13,22,3.10
2009,05,27,13,23,3.20
2009,05,27,13,24,3.20
2009,05,27,13,25,1.00
2009,05,27,13,26,5.00
2009,05,27,13,27,3.80
2009,05,27,13,28,7.60
2009,05,27,13,29,6.00
2009,05,27,13,30,6.40
2009,05,27,13,31,5.00
2009,05,27,13,32,4.70
2009,05,27,13,33,3.90
2009,05,27,13,34,1.80
2009,05,27,13,35,3.00
2009,05,27,13,36,0.70
2009,05,27,13,37,5.00
2009,05,27,13,38,4.40
2009,05,27,13,39,7.80
2009,05,27,13,40,4.10
2009,05,27,13,41,6.80
2009,05,27,13,42,7.70
2009,05,27,13,43,8.50
2009,05,27,13,44,5.00
2009,05,27,13,45,6.30
2009,05,27,13,46,5.20
2009,05,27,13,47,6.30
2009,05,27,13,48,7.20
2009,05,27,13,49,3.30
2009,05,27,13,50,3.50
2009,05,27,13,51,7.60
2009,05,27,13,52,6.80
2009,05,27,13,53,5.10
2009,05,27,13,54,7.20
2009,05,27,13,55,6.90
2009,05,27,13,56,2.50
2009,05,27,13,57,2.70
2009,05,27,13,58,8.60
2009,05,27,13,59,10.30
2009,05,27,14,00,5.60
2009,05,27,14,01,6.00
2009,05,27,14,02,8.50
2009,05,27,14,03,5.60
2009,05,27,14,04,6.90
2009,05,27,14,05,8.30
2009,05,27,14,06,2.80
2009,05,27,14,07,3.90
2009,05,27,14,08,4.20
2009,05,27,14,09,1.80
2009,05,27,14,10,4.60
2009,05,27,14,11,4.70
2009,05,27,14,12,3.10
2009,05,27,14,13,3.50
2009,05,27,14,14,9.70
2009,05,27,14,15,7.20
2009,05,27,14,16,6.70
2009,05,27,14,17,4.70
2009,05,27,14,18,5.50
2009,05,27,14,19,7.20
2009,05,27,14,20,7.00
2009,05,27,14,21,4.80
2009,05,27,14,22,5.70
2009,05,27,14,23,2.90
2009,05,27,14,24,4.30
2009,05,27,14,25,8.00
2009,05,27,14,26,7.40
2009,05,27,14,27,3.90
2009,05,27,14,28,2.90
2009,05,27,14,29,7.60
2009,05,27,14,30,6.20
2009,05,27,14,31,6.00
2009,05,27,14,32,6.10
2009,05,27,14,33,6.70
2009,05,27,14,34,6.00
2009,05,27,14,35,9.90
2009,05,27,14,36,8.30
2009,05,27,14,37,7.70
2009,05,27,14,38,11.00
2009,05,27,14,39,7.10
2009,05,27,14,40,4.00
2009,05,27,14,41,3.90
2009,05,27,14,42,5.00
2009,05,27,14,43,5.60
2009,05,27,14,44,3.00
2009,05,27,14,45,4.30
2009,05,27,14,46,7.90
2009,05,27,14,47,12.20
2009,05,27,14,48,7.70
2009,05,27,14,49,2.90
2009,05,27,14,50,2.50
2009,05,27,14,51,7.40
2009,05,27,14,52,8.90
2009,05,27,14,53,8.10
2009,05,27,14,54,5.00
2009,05,27,14,55,7.80
2009,05,27,14,56,6.80
2009,05,27,14,57,8.00
2009,05,27,14,58,2.70
2009,05,27,14,59,5.10
2009,05,27,15,00,3.90
2009,05,27,15,01,5.20
2009,05,27,15,02,6.80
2009,05,27,15,03,4.90
2009,05,27,15,04,10.10
2009,05,27,15,05,4.80
2009,05,27,15,06,4.40
2009,05,27,15,07,3.50
2009,05,27,15,08,3.20
2009,05,27,15,09,3.80
2009,05,27,15,10,3.10
2009,05,27,15,11,2.50
2009,05,27,15,12,3.50
2009,05,27,15,13,2.90
2009,05,27,15,14,1.50
2009,05,27,15,15,1.30
2009,05,27,15,16,6.90
2009,05,27,15,17,8.30
2009,05,27,15,18,5.30
2009,05,27,15,19,1.50
2009,05,27,15,20,4.60
2009,05,27,15,21,7.00
2009,05,27,15,22,2.60
2009,05,27,15,23,3.90
2009,05,27,15,24,4.70
2009,05,27,15,25,11.70
2009,05,27,15,26,7.60
2009,05,27,15,27,6.20
2009,05,27,15,28,5.20
2009,05,27,15,29,3.90
2009,05,27,15,30,6.80
2009,05,27,15,31,3.50
2009,05,27,15,32,7.80
2009,05,27,15,33,3.90
2009,05,27,15,34,8.00
2009,05,27,15,35,6.10
2009,05,27,15,36,5.50
2009,05,27,15,37,7.40
2009,05,27,15,38,7.60
2009,05,27,15,39,5.10
2009,05,27,15,40,2.40
2009,05,27,15,41,2.40
2009,05,27,15,42,3.60
2009,05,27,15,43,3.00
2009,05,27,15,44,1.00
2009,05,27,15,45,1.40
2009,05,27,15,46,1.50
2009,05,27,15,47,2.50
2009,05,27,15,48,5.00
2009,05,27,15,49,6.80
2009,05,27,15,50,5.00
2009,05,27,15,51,4.70
2009,05,27,15,52,7.00
2009,05,27,15,53,6.30
2009,05,27,15,54,8.00
2009,05,27,15,55,7.80
2009,05,27,15,56,6.40
2009,05,27,15,57,4.90
2009,05,27,15,58,6.80
2009,05,27,15,59,8.30
2009,05,27,16,00,7.00
2009,05,27,16,01,6.90
2009,05,27,16,02,5.40
2009,05,27,16,03,7.30
2009,05,27,16,04,4.70
2009,05,27,16,05,3.60
2009,05,27,16,06,3.50
2009,05,27,16,07,1.50
2009,05,27,16,08,4.80
2009,05,27,16,09,8.80
2009,05,27,16,10,3.80
2009,05,27,16,11,5.00
2009,05,27,16,12,5.70
2009,05,27,16,13,9.00
2009,05,27,16,14,7.20
2009,05,27,16,15,7.40
2009,05,27,16,16,7.60
2009,05,27,16,17,8.00
2009,05,27,16,18,4.70
2009,05,27,16,19,5.60
2009,05,27,16,20,6.80
2009,05,27,16,21,4.50
2009,05,27,16,22,5.00
2009,05,27,16,23,6.00
2009,05,27,16,24,6.90
2009,05,27,16,25,4.50
2009,05,27,16,26,3.30
2009,05,27,16,27,7.40
2009,05,27,16,28,7.60
2009,05,27,16,29,3.90
2009,05,27,16,30,1.50
2009,05,27,16,31,3.60
2009,05,27,16,32,6.40
2009,05,27,16,33,5.10
2009,05,27,16,34,5.30
2009,05,27,16,35,6.70
2009,05,27,16,36,5.30
2009,05,27,16,37,4.90
2009,05,27,16,38,8.20
2009,05,27,16,39,5.30
2009,05,27,16,40,3.80
2009,05,27,16,41,5.10
2009,05,27,16,42,4.40
2009,05,27,16,43,5.90
2009,05,27,16,44,3.00
2009,05,27,16,45,2.60
2009,05,27,16,46,2.70
2009,05,27,16,47,5.10
2009,05,27,16,48,3.60
2009,05,27,16,49,2.60
2009,05,27,16,50,0.30
2009,05,27,16,51,3.10
2009,05,27,16,52,5.90
2009,05,27,16,53,4.40
2009,05,27,16,54,4.80
2009,05,27,16,55,5.40
2009,05,27,16,56,6.40
2009,05,27,16,57,2.90
2009,05,27,16,58,5.20
2009,05,27,16,59,5.60
2009,05,27,17,00,5.40
2009,05,27,17,01,5.40
2009,05,27,17,02,4.50
2009,05,27,17,03,2.70
2009,05,27,17,04,2.40
2009,05,27,17,05,3.00
2009,05,27,17,06,3.70
2009,05,27,17,07,3.00
2009,05,27,17,08,4.70
2009,05,27,17,09,6.30
2009,05,27,17,10,4.30
2009,05,27,17,11,4.40
2009,05,27,17,12,3.10
2009,05,27,17,13,3.30
2009,05,27,17,14,3.40
2009,05,27,17,15,3.90
2009,05,27,17,16,0.30
2009,05,27,17,17,0.20
2009,05,27,17,18,0.50
2009,05,27,17,19,1.80
2009,05,27,17,20,3.20
2009,05,27,17,21,1.50
2009,05,27,17,22,1.90
2009,05,27,17,23,4.10
2009,05,27,17,24,3.30
2009,05,27,17,25,2.40
2009,05,27,17,26,4.00
2009,05,27,17,27,3.10
2009,05,27,17,28,2.50
2009,05,27,17,29,2.50
2009,05,27,17,30,2.10
2009,05,27,17,31,3.70
2009,05,27,17,32,2.30
2009,05,27,17,33,2.90
2009,05,27,17,34,0.80
2009,05,27,17,35,0.20
2009,05,27,17,36,4.90
2009,05,27,17,37,4.80
2009,05,27,17,38,2.00
2009,05,27,17,39,3.50
2009,05,27,17,40,5.30
2009,05,27,17,41,4.80
2009,05,27,17,42,2.20
2009,05,27,17,43,3.80
2009,05,27,17,44,2.50
2009,05,27,17,45,0.20
2009,05,27,17,46,0.60
2009,05,27,17,47,3.40
2009,05,27,17,48,4.10
2009,05,27,17,49,2.00
2009,05,27,17,50,0.70
2009,05,27,17,51,3.10
2009,05,27,17,52,5.70
2009,05,27,17,53,5.30
2009,05,27,17,54,5.00
2009,05,27,17,55,5.60
2009,05,27,17,56,5.10
2009,05,27,17,57,4.30
2009,05,27,17,58,4.20
2009,05,27,17,59,3.20
2009,05,27,18,00,3.00
2009,05,27,18,01,4.20
2009,05,27,18,02,5.00
2009,05,27,18,03,3.90
2009,05,27,18,04,0.70
2009,05,27,18,05,1.80
2009,05,27,18,06,2.50